Погода в Кабу-ди-Санту-Агостинью

Бразилия     8°17′22″S   35°01′24″W
темп.,
°C
ветер,
м/с
пор.,
м/с
влажн.,
%
обл.,
%
осадки,
мм/ч
давл.,
гПа
погр.,
м
27 февраля, сб
сб2700:00+25вюв22839 0.2 1011193
03:00+25св118418 1.8 1011154
06:00+25юз11820 0.0 1012144
09:00+29в33610 0.0 10131154
12:00+30в545551 0.0 10111162
15:00+29в555934 0.0 10091036
18:00+27в357170 0.0 1010475
21:00+26в237779 0.1 1011260
28 февраля, вс
вс2800:00+25в118247 2.4 1011117
03:00+25юз118245 2.9 1009128
06:00+24юз238413 0.5 1010122
09:00+29вюв346135 0.6 10121082
12:00+30вюв555696 0.1 10101279
15:00+29вюв556373 0.1 10081119
18:00+26вюв357710 0.1 1009443
21:00+26вюв23816 0.3 1010240
1 марта, пн
пн100:00+25юв23850 1.3 1009164
03:00+24юв128343 2.1 1008188
06:00+25вюв13825 0.1 1009238
09:00+29в456145 0.7 10101057
12:00+30в666047 1.4 10101111
15:00+28вюв676873 2.6 1008994
18:00+26вюв477796 0.1 1009572
21:00+25вюв248287 0.6 1011273
2 марта, вт
вт200:00+24ююв128430 3.8 101084
03:00+24ююв128418 5.6 1009111
06:00+25юз118232 1.4 1010128
09:00+29всв335719 1.5 10121167
12:00+31в54540 0.0 10121150
15:00+29в55620 0.1 10101028
18:00+26вюв35756 0.3 1011380
21:00+25вюв248113 1.3 1013248
3 марта, ср
ср300:00+25всв23822 0.1 1013233
03:00+24св12841 1.5 1011192
06:00+25вюв128555 0.8 1013167
09:00+28в446967 1.2 1014915
12:00+30в556373 0.4 10141007
15:00+29вюв556851 0.6 1012920
18:00+26вюв368228 0.1 1013507
21:00+25вюв358721 0.9 1014321